Regional Weather Roundup
Issued by NWS

Home | Current Version | Previous Version | Graphics & Text | Print | Product List | Glossary Off
Versions: 1 2 3 4 5 6 7 8 9 10 11 12 13 14 15 16 17 18 19 20 21 22 23 24 25 26 27 28 29 30 31 32 33 34 35 36 37 38 39 40 41 42 43 44 45 46 47 48 49 50

000
ASUS43 KMPX 231710
RWRMN
WEATHER ROUNDUP FOR MINNESOTA
NATIONAL WEATHER SERVICE TWIN CITIES/CHANHASSEN MN
1200 PM CDT THU MAR 23 2017


NOTE: "FAIR" INDICATES FEW OR NO CLOUDS BELOW 12,000 FEET WITH NO
SIGNIFICANT WEATHER AND/OR OBSTRUCTIONS TO VISIBILITY. N/A MEANS
CURRENT SKY AND/OR WEATHER CONDITIONS ARE NOT AVAILABLE.

MNZ060>063-068>070-231800-
   Twin Cities Metro

CITY           SKY/WX    TMP DP  RH WIND       PRES   REMARKS
TWIN CITIES    CLOUDY    39  23  52 S20G25    30.04F
ST PAUL        CLOUDY    39  24  55 SE23      30.06F
CRYSTAL        CLOUDY    39  22  50 S20G26    30.02F
BLAINE         CLOUDY    43  25  49 SE15G21   30.03F
LAKEVILLE      CLOUDY    37  27  65 S14       30.04F
EDEN PRAIRIE   CLOUDY    40  24  53 SE15      30.02F
SOUTH ST PAUL  CLOUDY    39  23  52 SE13      30.05F
LAKE ELMO      CLOUDY    39  25  56 S20       30.07F
$$
MNZ001>005-007-008-013>017-022>024-027-028-231800-
   Northwest Minnesota

CITY           SKY/WX    TMP DP  RH WIND       PRES   REMARKS
BEMIDJI        CLOUDY    38  23  54 S14G23    29.87F
HALLOCK        CLOUDY    36  30  80 S14       29.83R
ROSEAU         CLOUDY    39  28  65 S12       29.83F
WARROAD        CLOUDY    39  28  65 S7        29.84F
THIEF RVR FALL MIX PCPN N/A N/A N/A S14       29.86
CROOKSTON      MIX PCPN  34  34 100 S17       29.86R WCI  23
FOSSTON        HVY RAIN  36  28  75 S16       29.87R
DETROIT LAKES  CLOUDY    37  27  65 S14       29.88F
MOORHEAD       CLOUDY    39  27  60 SE18G28   29.84F
PARK RAPIDS    MIX PCPN  37  23  56 S22G29    29.89F
MAHNOMEN       CLOUDY    37  29  74 S13       29.86R
$$
MNZ006-009>011-018-025>026-231800-
   North Central Minnesota

CITY           SKY/WX    TMP DP  RH WIND       PRES   REMARKS
BAUDETTE       CLOUDY    39  23  52 S14       29.86F
FLAG ISLAND    CLOUDY    32  27  80 S9        29.85S WCI  24
INTL FALLS     CLOUDY    40  23  50 S10G22    29.92F
WASKISH        CLOUDY    41  25  52 S13G18    29.88F
BIG FORK       CLOUDY    39  23  52 S10G21    29.94F
LONGVILLE      CLOUDY    37  23  56 S14G20    29.96F
GRAND RAPIDS   CLOUDY    36  22  56 S12G17    29.99S
CRANE LAKE     CLOUDY    36  21  55 S12G18    29.99S
ORR            CLOUDY    36  19  51 S15G21    29.94F
COOK           CLOUDY    36  21  55 S14G20    29.98F
WALKER         LGT RAIN  37  22  54 S14G21    29.90F
$$
MNZ012-019>021-037-231800-
   Northeast Minnesota

CITY           SKY/WX    TMP DP  RH WIND       PRES   REMARKS
DULUTH         CLOUDY    35  24  64 S14       30.03F WCI  26
ELY            CLOUDY    34  23  64 S9G17     30.00F WCI  26
HIBBING        CLOUDY    33  20  58 S13G18    29.99F WCI  24
EVELETH        CLOUDY    35  19  51 S12G17    30.01F WCI  27
DULUTH HARBOR  CLOUDY    37  27  65 S9        30.07F
TWO HARBORS    CLOUDY    36  28  75 S9        30.04F
SILVER BAY     CLOUDY    34  28  80 S3        30.04F
GRAND MARAIS     N/A     34  29  82 S9        30.11F WCI  27
G MARAIS ARPRT CLOUDY    27  25  93 S13       30.05F WCI  16
$$
MNZ029>031-032-039>041-046>048-054>057-064-231800-
   West Central Minnesota

CITY           SKY/WX    TMP DP  RH WIND       PRES   REMARKS
FERGUS FALLS   CLOUDY    39  25  56 S21       29.89F
WHEATON        CLOUDY    41  25  52 SE21      29.85F
MORRIS         CLOUDY    39  25  56 SE23      29.85F
ALEXANDRIA     CLOUDY    38  23  55 SE16G24   29.91F
ELBOW LAKE     FAIR      39  24  55 E22G30    29.86F
WADENA         CLOUDY    37  23  56 SE12      29.89F
GLENWOOD       CLOUDY    37  25  60 SE18G24   29.92F
APPLETON       MOSUNNY   43  25  49 S16G24    29.88F
BENSON         CLOUDY    43  21  42 S16G24    29.90F
ORTONVILLE     CLOUDY    43  27  52 SE23G29   29.83F
MADISON        CLOUDY    45  30  57 SE17      29.86S
WILLMAR        CLOUDY    41  27  56 SE18G24   29.95F
$$
MNZ033>034-036-042>043-049>051-058-059-231800-
   Central Minnesota

CITY           SKY/WX    TMP DP  RH WIND       PRES   REMARKS
ST CLOUD       CLOUDY    40  25  55 S16       30.00F
SAUK CENTRE    CLOUDY    37  25  62 SE16      29.95F
PAYNESVILLE      N/A     38  25  60 SE16      29.98R
AITKIN         CLOUDY    41  19  42 S10       29.98S
PINE RIVER     CLOUDY    37  25  60 S9G16     29.99F
BRAINERD       CLOUDY    39  23  52 S17       29.98F
STAPLES        CLOUDY    37  21  52 S12       29.93F
LONG PRAIRIE   CLOUDY    36  25  64 E13       29.95F
LITTLE FALLS   CLOUDY    37  23  56 S12       29.98F
LITCHFIELD     CLOUDY    39  27  60 SE9G16    29.98F
BUFFALO        CLOUDY    39  25  56 SE10G16   30.03S
MAPLE LAKE     CLOUDY    40  28  62 S8G16     30.03R
HUTCHINSON     CLOUDY    39  29  65 SE14      29.99F
$$
MNZ037-044-045-052-053-231800-
   East Central Minnesota

CITY           SKY/WX    TMP DP  RH WIND       PRES   REMARKS
PRINCETON      CLOUDY    43  25  49 SE14G22   30.01F
MORA           CLOUDY    37  23  56 S12       30.04F
CAMBRIDGE      CLOUDY    43  27  52 SE13G18   30.01F
RUSH CITY      CLOUDY    39  25  57 S12G18    30.04F
MOOSE LAKE     CLOUDY    36  23  60 S10G16    30.01F
HINCKLEY       CLOUDY    37  25  60 S14       30.04F
CLOQUET        CLOUDY    36  21  55 S7        30.02F
MCGREGOR       CLOUDY    37  27  65 S8        30.01S
$$
MNZ071>073-080-081-089-090-097-098-231800-
   Southwest Minnesota

CITY           SKY/WX    TMP DP  RH WIND       PRES   REMARKS
MONTEVIDEO     PTSUNNY   43  27  52 S15G22    29.91F
GRANITE FALLS  CLOUDY    45  30  56 SE22      29.91F
CANBY          CLOUDY    44  29  57 E16       29.86F
MARSHALL       CLOUDY    43  27  53 S25       29.88F
REDWOOD FALLS  CLOUDY    43  27  53 SE25G35   29.93F
OLIVIA         PTSUNNY   41  28  60 SE22      29.93F
PIPESTONE      CLOUDY    39  25  56 S17       29.85R
WINDOM         CLOUDY    39  27  60 SE16G23   29.92F
WORTHINGTON    LGT RAIN  38  27  64 S15       29.91F
JACKSON        DRIZZLE   37  28  70 SE15      29.93F
TRACY          PTSUNNY   42  29  60 S17G24    29.89F
SLAYTON        CLOUDY    37  28  69 SE18G24   29.87F
$$
MNZ065>067-074>077-082>085-091>093-231800-
   South Central Minnesota

CITY           SKY/WX    TMP DP  RH WIND       PRES   REMARKS
MANKATO        CLOUDY    39  27  62 SE23G30   30.01S
NEW ULM        CLOUDY    39  27  60 S16       29.98F
ST JAMES       CLOUDY    39  30  70 SE18G29   29.98F
FAIRMONT       CLOUDY    39  28  64 SE22G30   29.97F
GLENCOE        CLOUDY    39  30  68 SE10G18   30.00S
FARIBAULT      CLOUDY    37  27  65 SE15G24   30.05R
OWATONNA       CLOUDY    36  25  64 SE20G26   30.05R
WASECA         CLOUDY    36  28  75 SE16      30.04S
ALBERT LEA     CLOUDY    36  27  69 S17       30.03S
$$
MNZ078>079-086>088-094>096-231800-
   Southeast Minnesota

CITY           SKY/WX    TMP DP  RH WIND       PRES   REMARKS
ROCHESTER      CLOUDY    37  24  59 S21G29    30.07F
RED WING       CLOUDY    39  19  45 SE12G17   30.06F
STANTON        CLOUDY    39  25  56 SE20G29   30.04F
DODGE CENTER   CLOUDY    36  27  69 S23G31    30.05F
WINONA         CLOUDY    41  23  48 SE9       30.13F
AUSTIN         CLOUDY    36  27  69 S15G21    30.07R
PRESTON        CLOUDY    37  22  55 S16G24    30.09S
$$
ABBREVIATIONS USED IN REMARKS
   TC - TEMPERATURES IN CELSIUS
  WCI - WIND CHILL INDEX
   HX - HEAT INDEX
  VSB - VISIBILITY
$$




USA.gov is the U.S. government's official web portal to all federal, state and local government web resources and services.